Regional Weather Roundup
Issued by NWS State College, PA

Home | Current Version | Previous Version | Text Only | Print | Product List | Glossary On
Versions: 1 2 3 4 5 6 7 8 9 10 11 12 13 14 15 16 17 18 19 20 21 22 23 24 25 26 27 28 29 30 31 32 33 34 35 36 37 38 39 40 41 42 43 44 45 46 47 48 49 50
000
ASUS41 KCTP 210110
RWRCTP

REGIONAL WEATHER ROUNDUP
NATIONAL WEATHER SERVICE STATE COLLEGE PA
800 PM EST MON NOV 20 2017

Note: "fair" indicates few or no clouds below 12,000 feet with no
significant weather and/or obstructions to visibility.

* = STATION THAT DOES NOT REPORT PRECIPITATION /E.G. RAIN...SNOW...ETC/
    THUNDER OR FOG.

PAZ002>004-007>009-013>016-020>023-029>032-210200-
WESTERN PENNSYLVANIA

CITY           SKY/WX    TMP DP  RH WIND       PRES   REMARKS
ERIE           CLEAR     40  24  53 S21G28    29.95S
MEADVILLE      CLEAR     36  24  62 S13       29.99F
FRANKLIN*      CLEAR     34  23  64 S13       30.02S
NEW CASTLE     FAIR      38  23  55 S7        30.04F
BEAVER COUNTY  NOT AVBL
BUTLER*        CLEAR     37  22  54 S6        30.06S
PITTSBURGH INT CLEAR     38  22  52 S8        30.05F
PITTSBURGH     CLEAR     37  20  50 S10       30.06F
INDIANA*       CLEAR     36  25  64 SW9       30.11S
LATROBE        CLEAR     36  23  60 SW9       30.10S
WASHINGTON CO* CLEAR     36  21  54 S7        30.10F
$$

PAZ004>006-010>012-017>019-024>028-033>037-041-042-045-046-049>053-210200-
CENTRAL PENNSYLVANIA

CITY           SKY/WX    TMP DP  RH WIND       PRES   REMARKS
BRADFORD       CLEAR     33  23  66 MISG      29.99S
DUBOIS         CLEAR     34  22  61 SW7       30.03R
CLEARFIELD     CLEAR     34  25  69 SW6       30.06S
JOHNSTOWN      CLEAR     35  22  58 SW12      30.06R
ALTOONA        CLEAR     37  24  59 S6        30.09R
STATE COLLEGE  CLEAR     36  23  60 SW6       30.07S
WILLIAMSPORT   CLEAR     36  26  67 NE3       30.08R
SELINSGROVE    CLEAR     39  25  57 W3        30.10S
FT INDIANTOWN  CLEAR     33  26  75 CALM      30.11S
CAPITAL CITY   CLEAR     43  20  39 W3        30.12S
HARRISBURG     CLEAR     43  25  49 SW6       30.12S
YORK           CLEAR     40  23  50 S5        30.13S
$$

PAZ038>040-043-044-047-048-054-055-060>062-067>071-210200-
EASTERN PENNSYLVANIA

CITY           SKY/WX    TMP DP  RH WIND       PRES   REMARKS
SCRANTON       CLEAR     38  24  57 SW8       30.05S
MOUNT POCONO   CLEAR     32  23  69 W6        30.03S
ALLENTOWN      CLEAR     37  23  56 CALM      30.11S
QUAKERTOWN*    CLEAR     36  25  64 CALM      30.13S
READING        CLEAR     38  25  59 CALM      30.12R
LANCASTER      CLEAR     35  26  69 CALM      30.13S
COATESVILLE    CLEAR     43  21  42 SW7       30.14F
POTTSTOWN      CLEAR     40  22  48 SW6       30.15R
BLUE BELL      CLEAR     37  23  56 CALM      30.15S
DOYLESTOWN     CLEAR     39  22  50 W5        30.12S
WILLOW GROVE   NOT AVBL
NORTH PHILA    CLEAR     43  24  47 SW5       30.16R
PHILADELPHIA   CLEAR     43  25  49 SW7       30.16R
$$



USA.gov is the U.S. government's official web portal to all federal, state and local government web resources and services.